Location: Krasnoyarskiy
(51.1133°N, 71.6497°E)
Time: 21:38:23
(UTC+00:00)

Lacrosse 4 Rocket - Pass Details

Date: 27 September 2022
Orbit: 533 x 616 km, 68.0° (Epoch: 03 December)

Event Time Altitude Azimuth Distance (km) Brightness Sun altitude
Rises 00:27:44 0° 327° (NNW) 2,805 4.7 -7.0°
Reaches altitude 10° 00:30:02 10° 333° (NNW) 1,916 3.9 -6.6°
Maximum altitude 00:34:11 46° 48° (NE) 804 2.6 -6.0°
Drops below altitude 10° 00:38:26 10° 122° (ESE) 1,951 5.0 -5.3°
Sets 00:40:46 0° 129° (SE) 2,861 5.8 -4.9°
